Location: Peterborough
(44.3091°N, 78.3197°W)
Time: 17:49:09
(UTC-04:00)

Transit 2A Rocket - Pass Details

Date: 24 March 2023
Orbit: 584 x 914 km, 66.7° (Epoch: 04 June)

Event Time Altitude Azimuth Distance (km) Brightness Sun altitude
Rises 11:39:46 0° 175° (S) 3,197 8.9 41.8°
Reaches altitude 10° 11:42:23 10° 163° (SSE) 2,333 8.6 42.1°
Maximum altitude 11:46:49 26° 107° (ESE) 1,561 7.6 42.5°
Drops below altitude 10° 11:51:33 10° 53° (NE) 2,513 7.7 43.0°
Sets 11:54:28 0° 42° (NE) 3,495 8.3 43.2°
